Location: Raitis
(47.2167°N, 11.3833°E)
Time: 21:31:44
(UTC+00:00)

Daily predictions for brighter satellites

Satellite Brightness Start Highest point End
(mag) Time Altitude Azimuth Time Altitude Azimuth Time Altitude Azimuth
CZ-2C R/B 3.4 17:22:56 10° SSE 17:28:41 86° WSW 17:34:13 10° NNW
Cosmos 2322 Rocket 2.5 17:25:44 10° S 17:31:00 43° ESE 17:36:17 10° NE
Aureole 2 Rocket 3.0 17:30:27 10° N 17:32:30 21° ENE 17:34:31 10° ESE
Sich 1 3.3 17:29:50 10° SSW 17:34:13 78° W 17:38:41 10° N
Nadezhda 3 Rocket 4.2 17:29:23 10° N 17:35:35 50° ENE 17:41:45 10° SSE
Cosmos 1461 3.3 17:31:28 10° SW 17:36:13 83° NW 17:41:00 10° NE
ATLAS 5 CENTAUR R/B 4.0 17:20:39 10° SW 17:36:53 61° NW 17:41:07 10° NE
Meteor 1-25 Rocket 4.3 17:32:27 10° S 17:38:08 65° E 17:43:46 10° NNE
Cosmos 2074 Rocket 4.0 17:35:59 10° S 17:42:14 77° E 17:48:30 10° NNE
Cosmos 2154 Rocket 4.1 17:36:33 10° SSE 17:42:31 51° E 17:48:30 10° NNE
YAOGAN 1 2.5 17:39:25 10° SSE 17:43:41 65° ENE 17:48:00 10° N
Abrixas rocket 1.4 17:41:12 10° W 17:43:42 82° N 17:45:57 12° ENE
Helios 1A Rocket 3.4 17:40:10 10° SE 17:43:56 39° ENE 17:47:42 10° N
FALCON 9 DEB 4.4 17:42:42 10° WNW 17:45:32 28° N 17:48:21 10° ENE
APEX 3.8 17:43:50 10° NW 17:46:31 41° WSW 17:49:05 10° S
Cosmos 2219 Rocket 3.7 17:46:24 10° ESE 17:48:55 13° E 17:51:27 10° ENE
SJ-6B 4.5 17:46:57 10° ESE 17:49:36 17° ENE 17:52:14 10° NNE
COSMO-SKYMED 1 3.1 17:45:25 10° N 17:49:44 63° WNW 17:54:00 10° SSW
GP-B 3.9 17:47:19 10° SE 17:51:10 30° ENE 17:55:02 10° NNE
Cosmos 1992 Rocket 4.1 17:49:46 10° S 17:54:51 54° ESE 17:59:58 10° NNE
Cosmos 2263 Rocket 3.5 17:49:54 10° NW 17:55:08 43° WSW 18:00:21 10° S
SL-16 R/B 2.2 17:49:47 10° SSW 17:55:27 83° ESE 18:01:10 10° NNE
Meteor 1-18 Rocket 4.3 17:49:55 10° N 17:55:52 71° ENE 18:01:46 10° SSE
Cosmos 968 Rocket 3.7 17:50:49 10° NNW 17:56:06 78° WSW 18:01:22 10° SSE
ARGOS 3.2 17:51:25 10° SSE 17:56:48 68° ENE 18:02:12 10° N
FALCON 9 DEB 4.5 17:55:19 10° WNW 17:58:06 27° N 18:00:32 12° NE
USA 234 3.9 17:53:21 10° ENE 17:59:10 33° SE 18:04:58 10° SSW
Cosmos 1486 Rocket 4.1 17:54:33 10° NNW 17:59:52 83° WSW 18:05:11 10° SSE
Cosmos 1515 3.6 17:56:18 10° N 18:00:10 85° E 18:03:59 10° S
Okean 1 3.2 17:56:12 10° N 18:00:16 82° E 18:04:18 10° S
SJ 16-02 3.4 18:00:37 10° NNE 18:01:45 11° NE 18:02:34 10° ENE
SeaSat 1 2.8 17:57:47 10° NE 18:02:32 44° ESE 18:07:13 10° S
Cosmos 1633 Rocket 3.3 17:58:19 10° SSW 18:02:44 78° W 18:07:12 10° N
Cosmos 2184 Rocket 4.2 17:56:42 10° SSW 18:02:51 79° W 18:09:06 10° N
OBJECT-B 2.7 18:03:22 14° ENE 18:03:22 14° ENE 18:05:06 10° NNE
Okean 1-7 3.7 17:59:45 10° N 18:03:44 33° ENE 18:07:39 10° SE
CZ-2C R/B 2.8 18:02:33 10° NNE 18:07:56 51° E 18:13:07 10° S
CZ-4 R/B 2.0 18:04:23 10° S 18:08:10 57° W 18:12:02 10° NNW
H-2A R/B 2.5 18:02:45 10° S 18:08:11 72° WSW 18:13:39 10° NNW
SAR-Lupe-4 3.4 18:06:55 10° NNE 18:10:31 69° ESE 18:14:03 10° S
USA 305 4.1 18:07:40 10° WNW 18:11:35 33° N 18:14:50 14° NE
Gbstr 26 Del rocket 3.8 18:09:57 10° W 18:14:18 52° N 18:18:27 16° ENE
SL-8 Rocket 4.4 18:08:54 10° SSE 18:14:33 38° E 18:20:11 10° NNE
Cosmos 2237 4.2 18:09:06 10° SSW 18:14:45 64° ESE 18:20:27 10° NNE
SL-4 R/B 2.2 18:13:29 10° WNW 18:16:55 44° N 18:18:38 24° ENE
Cosmos 1869 Rocket 4.4 18:15:57 10° SE 18:19:35 26° E 18:23:16 10° NNE
USA 307 4.2 18:19:01 10° WNW 18:22:55 33° N 18:25:41 16° NE
USA 186 2.7 18:25:07 21° NNE 18:25:07 21° NNE 18:26:20 10° N
ATLAS CENTAUR R/B 1.0 18:20:56 10° SSW 18:24:29 59° ESE 18:26:57 19° NE
FALCON 9 DEB 3.0 18:21:18 10° WNW 18:24:44 83° NNE 18:26:13 31° ESE
USA 306 4.2 18:22:28 10° WNW 18:26:21 33° N 18:28:56 18° NE
Cosmos 1354 Rocket 3.9 18:21:18 10° NNW 18:26:36 85° ENE 18:31:50 10° SSE
ERS-2 2.5 18:24:07 10° N 18:27:46 68° WNW 18:31:23 10° SSW
Okean-O 3.7 18:23:45 10° S 18:28:01 47° W 18:32:19 10° NNW
Cosmos 44 Rocket 4.3 18:23:02 10° NW 18:28:05 50° WSW 18:33:04 10° SSE
FALCON 9 DEB 4.4 18:25:57 10° WNW 18:28:45 28° N 18:29:48 23° NE
CSL-04 Rocket 3.8 18:23:44 10° SSE 18:29:17 83° WSW 18:34:50 10° NNW
Cosmos 2366 rocket 4.4 18:23:44 10° SSE 18:29:31 40° E 18:35:23 10° NNE
SAR-Lupe-1 4.4 18:26:19 10° N 18:29:55 66° WNW 18:33:28 10° SSW
Cosmos 1844 Rocket 2.6 18:24:46 10° NNW 18:30:23 84° ENE 18:35:58 10° SSE
Cosmos 2084 Rocket 4.1 18:26:21 10° NW 18:30:38 56° SW 18:34:58 10° SSE
CSL-04 Debris 4.4 18:25:13 10° S 18:30:38 76° WSW 18:36:09 10° NNW
FALCON 9 DEB 4.4 18:27:51 10° WNW 18:30:41 28° N 18:31:45 23° NE
USA 308 4.2 18:29:41 10° WNW 18:33:34 32° N 18:35:51 20° NE
Cosmos 1666 2.8 18:30:20 10° SSE 18:33:54 47° E 18:37:31 10° NNE
Cosmos 1777 Rocket 4.2 18:30:09 10° NNW 18:35:16 49° ENE 18:37:59 25° SE
Cosmos 1503 Rocket 4.3 18:31:37 10° NNW 18:36:48 69° WSW 18:41:54 10° S
Cosmos 2341 Rocket 3.9 18:31:36 10° S 18:37:52 71° E 18:44:07 10° NNE
Meteor 1-5 Rocket 4.0 18:32:54 10° S 18:38:13 68° E 18:43:43 10° NNE
Cosmos 2333 4.4 18:33:19 10° S 18:38:41 47° ESE 18:44:08 10° NE
Cosmos 1470 Rocket 4.4 18:37:37 10° SSW 18:42:00 53° WNW 18:46:23 10° N
Cosmos 1844 3.7 18:36:23 10° NNW 18:42:13 85° ENE 18:46:58 15° SSE
Okean 3 3.9 18:38:18 10° N 18:42:20 40° ENE 18:42:57 38° E
Ariane Rocket 3.2 18:42:04 26° SE 18:44:42 50° ENE 18:49:37 10° N
Cosmos 2360 Rocket 2.2 18:39:10 10° SSW 18:44:49 90° WNW 18:50:32 10° NNE
Cosmos 2278 Rocket 3.2 18:42:47 10° N 18:47:37 28° NE 18:48:35 26° ENE
Cosmos 1727 Rocket 4.3 18:44:37 10° N 18:50:31 44° ENE 18:52:57 31° ESE
Cosmos 1500 4.2 18:49:07 10° SSW 18:52:42 46° WNW 18:56:20 10° N
Meteor 2-4 Rocket 4.2 18:48:10 10° NNW 18:53:57 66° W 18:59:49 10° S
Cosmos 1703 Rocket 3.7 18:49:47 10° NNW 18:54:11 73° W 18:58:31 10° S
Cosmos 2333 Rocket 2.3 18:49:29 10° S 18:54:57 50° ESE 19:00:28 10° NE
Cosmos 2218 Rocket 4.0 18:50:08 10° S 18:56:27 65° E 19:02:47 10° NNE
ERBS 4.4 18:58:46 10° WNW 19:01:20 20° NNW 19:02:19 18° N
Cosmos 1943 Rocket 4.3 19:04:31 10° NNE 19:06:14 11° NNE 19:06:52 11° NE
Resurs 01 Rocket 2.7 19:12:41 31° NNE 19:12:41 31° NNE 19:15:28 10° N
Cosmos 864 Rocket 4.3 19:07:05 10° S 19:13:13 80° E 19:19:27 10° N
Cosmos 2322 Rocket 3.7 19:10:02 10° WSW 19:15:08 35° NW 19:20:17 10° NNE
Lacrosse 4 Rocket 2.9 19:12:32 10° SSW 19:14:29 26° S 19:14:29 26° S
SME Rocket 4.1 19:09:41 10° NNE 19:18:07 85° ESE 19:23:29 10° SSW
Cosmos 1959 Rocket 4.3 19:12:33 10° S 19:18:39 89° E 19:24:48 10° N
Cosmos 192 4.2 19:17:14 10° SSW 19:22:09 87° WNW 19:27:06 10° NNE
SJ-6B 3.6 19:22:30 35° SSW 19:23:51 53° W 19:27:51 10° NNW
COSMOS 2428 2.6 19:19:22 10° SSW 19:32:12 - NNE 19:24:51 63° ESE
ASTEX 1 3.4 19:22:26 10° N 19:27:21 79° W 19:30:11 25° SSW
MOS 1 4.4 19:25:33 29° S 19:28:37 74° WSW 19:34:19 10° NNW
Meteor 1-23 Rocket 4.0 19:24:14 10° N 19:29:50 78° ENE 19:30:27 69° SE
Cosmos 2219 Rocket 2.0 19:26:22 10° SSW 19:31:57 84° ESE 19:37:35 10° NNE
Meteor 1-11 Rocket 3.8 19:26:14 10° SSW 19:31:58 78° WNW 19:37:36 10° N
OBJECT-B 3.0 19:36:26 26° NW 19:36:26 26° NW 19:38:15 10° NNW
Resurs 1-3 3.9 19:38:47 64° NW 19:38:47 64° NW 19:42:42 10° NNW
SeaSat 1 4.1 19:35:32 10° NNE 19:39:55 33° NW 19:44:17 10° WSW
SJ 16-02 2.4 19:36:46 10° NNW 19:39:34 38° N 19:39:34 38° N
USA 234 3.2 19:39:54 39° NE 19:42:37 84° NNW 19:49:10 10° WSW
Meteor 2-20 Rocket 4.3 19:43:14 10° N 19:49:08 77° NE 19:49:08 77° NE
Cosmos 2369 Rocket 4.4 19:48:58 10° N 19:50:42 13° NNE 19:50:42 13° NNE
Cosmos 2322 4.2 19:46:27 10° SW 19:52:05 58° WNW 19:57:45 10° NNE
BREEZE-M DEB (TANK) 3.4 19:49:06 10° WNW 19:51:09 49° WNW 19:51:09 49° WNW
USA 305 4.5 19:48:13 10° NW 19:50:56 31° NNW 19:50:56 31° NNW
SL-4 R/B 4.3 19:53:08 10° WNW 19:54:13 18° WNW 19:54:13 18° WNW
Gbstr 26 Del rocket 4.1 19:56:54 10° WNW 20:00:59 55° NNW 20:00:59 55° NNW
ATLAS CENTAUR R/B 3.7 20:01:01 10° W 20:03:10 18° NW 20:03:10 18° NW
SPOT 3 Rocket 4.5 20:18:37 46° WNW 20:18:37 46° WNW 20:22:46 10° NNW
NOSS 3-3 (A) 4.4 20:10:58 10° NW 20:18:29 88° SW 20:18:42 86° S
NOSS 3-3 (C) 4.4 20:11:04 10° NW 20:18:35 88° SW 20:18:47 86° SSE
Cosmos 2278 Rocket 3.2 20:26:31 10° NNW 20:30:28 43° NW 20:30:28 43° NW
Cosmos 2333 Rocket 3.8 20:34:24 10° WSW 20:39:28 32° NW 20:44:35 10° NNE
Resurs 01 Rocket 4.3 20:50:14 16° NW 20:50:14 16° NW 20:51:33 10° NW
Cosmos 1943 Rocket 4.2 20:46:16 10° NNW 20:48:24 22° N 20:48:24 22° N
Cosmos 2219 Rocket 4.4 21:12:26 10° W 21:16:38 21° NW 21:20:52 10° N
